CAPE
0 0 0 0 0 0 0 0 0 0 0 0 0 0 0 0 0 1 474 546 566 751 798 2022 2196 2169 2097 2106 2101 1855 1549 1412 1100 921 436 492 359 237 449 603 539 469 382 276 256 159 73 125 66
0 0 0 0 0 0 0 0 0 0 0 0 0 0 0 0 0 62 517 601 698 818 1286 1598 2011 2058 2052 1951 1893 1803 1695 1401 1107 918 955 962 777 433 551 602 325 267 511 291 128 2 9 87 12
0 0 0 0 0 0 0 0 0 0 0 0 0 0 0 0 4 146 680 779 926 976 1515 1683 1904 1968 1925 1840 1681 1629 1520 1315 1023 923 1189 1071 1097 579 542 686 454 203 285 266 85 2 7 50 8
0 0 0 0 0 0 0 0 0 0 0 0 0 0 0 46 739 903 867 929 1055 1252 1229 1660 1824 1886 1763 1678 1634 1579 1241 1209 1092 1032 1121 1083 982 669 903 700 264 68 66 174 41 81 117 107 77
0 0 0 0 0 0 0 0 0 0 0 0 0 0 0 88 871 952 1057 1049 1212 1401 1556 1815 1842 1944 1783 1647 1599 1420 1160 1492 1211 1216 1284 1251 1039 745 579 368 208 219 87 114 61 256 279 261 121
0 0 0 0 0 0 0 0 0 0 0 0 0 0 0 0 280 738 1206 1246 1340 1461 1737 1656 1594 1788 1735 1509 1410 1224 1391 1376 1746 1233 1304 1120 960 823 527 386 362 369 148 183 235 281 352 274 134
0 0 0 0 0 0 0 0 0 0 0 0 0 0 0 0 342 852 1332 1361 1434 1904 1745 1675 1653 1531 1554 1297 1100 1093 1474 1350 1586 1164 1117 961 742 484 554 493 428 416 376 370 374 272 190 142 89
0 0 0 0 0 0 0 0 0 0 0 0 0 0 0 0 13 1106 1286 1590 1655 1852 1908 2089 1704 1515 1615 1587 936 924 1211 1141 1342 936 674 443 288 310 405 220 249 359 427 340 322 305 105 62 51
0 0 0 0 0 0 0 0 0 0 0 0 0 0 0 0 552 1703 1703 1688 1412 1947 1958 2033 1959 1520 1497 1449 1470 1067 1271 1249 1094 684 478 268 221 114 75 0 121 202 180 230 134 64 51 25 21
0 0 0 0 0 0 0 0 0 0 0 0 0 0 0 0 26 647 1350 1674 1483 1705 2188 2233 2057 1871 1562 1475 1437 1481 1564 1505 849 784 537 323 55 9 9 10 92 134 87 67 39 26 39 23 22
0 0 0 0 0 0 0 0 0 0 0 0 0 0 0 0 0 83 348 1008 1342 1502 1805 1668 1817 1579 1530 1422 1271 1583 1440 1246 998 737 626 241 172 16 51 81 38 17 20 29 15 5 9 18 27
0 0 0 0 0 0 0 0 0 0 0 0 0 0 0 0 0 1 65 436 567 1024 1498 1672 1542 1650 1716 1574 1259 1371 1226 865 726 798 432 259 346 44 38 20 17 10 6 29 25 22 14 12 8
0 0 0 0 0 0 0 0 0 0 0 0 0 0 0 0 0 0 3 63 392 497 1300 1640 1329 1222 1437 1466 1384 1296 901 837 704 520 345 481 373 42 30 20 18 24 17 3 4 8 13 10 15
0 0 0 0 0 0 0 0 0 0 0 0 0 0 0 0 0 0 0 15 55 361 486 900 1118 1192 1061 1334 1194 1135 1167 758 552 424 521 749 209 56 27 17 12 2 0 0 1 6 10 16 17
0 0 0 0 0 0 0 0 0 0 0 0 0 0 0 0 0 0 0 0 133 100 318 443 991 1056 939 994 966 861 725 672 581 403 399 547 168 74 22 8 6 0 0 0 3 3 4 5 9
0 0 0 0 0 0 0 0 0 8 10 0 0 0 0 0 0 0 0 2 19 36 181 335 578 862 926 656 688 751 335 624 437 381 283 436 149 43 5 3 0 0 0 1 0 1 4 8 11
0 0 0 0 0 0 0 0 0 2 0 0 0 0 0 0 0 0 0 0 4 56 163 97 352 481 607 593 662 598 223 494 472 206 399 197 103 11 1 0 0 0 0 1 1 5 8 13 15
0 0 0 0 0 0 0 0 0 0 11 5 1 0 0 0 0 9 0 0 0 15 1 80 224 488 404 496 511 559 262 239 499 188 222 234 52 4 4 1 0 0 0 1 1 4 15 11 15
0 0 0 0 0 0 0 0 0 1 1 0 0 0 0 0 0 2 0 0 0 12 11 97 51 90 537 421 305 696 289 190 432 219 163 96 61 0 4 0 0 0 0 0 0 1 12 17 11
0 0 0 0 0 0 0 0 1 3 0 1 0 0 0 0 0 0 1 0 0 0 8 21 44 81 116 333 409 338 319 210 276 216 301 174 49 0 1 0 0 0 0 0 1 2 6 11 15
0 0 0 0 0 0 0 0 0 0 0 0 0 0 0 0 0 0 2 0 3 0 11 83 29 20 105 288 311 326 299 278 161 233 187 118 4 0 0 0 0 0 0 0 0 0 0 3 9
0 0 0 0 0 0 0 0 0 0 0 0 0 0 0 0 0 0 0 0 1 0 2 5 11 4 3 37 179 252 195 183 177 139 118 44 0 0 1 0 0 0 0 0 0 0 0 1 4
0 0 0 0 0 0 0 0 0 0 0 0 0 0 0 0 0 1 0 0 4 0 0 6 9 45 23 75 228 105 186 170 218 145 25 29 6 0 4 0 0 7 0 2 7 0 0 0 0
0 0 0 0 0 0 0 0 0 0 0 0 0 0 0 0 0 1 0 0 0 1 0 9 10 16 28 48 116 76 129 177 158 189 26 4 3 3 8 0 5 9 1 2 1 1 0 0 0
0 0 0 0 0 0 0 0 0 0 0 0 0 0 0 0 0 0 0 0 0 0 0 7 23 14 5 0 18 59 124 90 111 172 30 1 0 6 2 0 1 7 1 0 3 0 0 0 0
0 0 0 0 0 0 0 0 0 0 0 0 0 0 0 0 0 0 0 0 0 0 0 0 1 3 4 0 9 45 185 11 127 111 123 8 0 0 0 0 0 0 0 0 0 0 0 0 0
0 0 0 0 0 0 0 0 0 0 0 0 0 0 0 0 0 0 0 0 0 1 0 1 0 3 0 0 7 47 68 147 63 25 86 45 1 0 0 0 0 0 0 0 0 0 0 0 0
0 0 0 0 0 0 0 0 0 0 0 0 0 0 0 0 0 0 0 0 0 0 1 0 0 0 1 0 0 0 14 21 38 116 64 55 1 1 0 0 0 0 2 0 0 0 0 0 0
0 0 0 0 0 0 0 0 0 0 0 0 0 0 0 0 0 0 1 0 0 0 0 0 0 0 1 0 1 1 28 22 13 21 6 54 21 0 1 0 0 0 0 4 0 0 0 0 0
0 0 0 0 0 0 0 0 0 0 0 0 0 0 0 0 0 0 0 0 0 0 0 0 0 0 0 0 0 0 0 0 6 50 4 42 6 71 10 0 0 0 0 1 1 0 0 0 0
CIN
0 0 0 0 0 0 0 0 0 0 0 0 0 0 0 0 0 -4 -241 -200 -192 -182 -170 -41 -3 0 0 0 0 0 0 0 0 -1 -66 -63 -90 -117 -58 -44 -53 -69 -90 -121 -153 -224 -295 -258 -310
0 0 0 0 0 0 0 0 0 0 0 0 0 0 0 0 0 -106 -157 -231 -174 -150 -87 -44 -3 0 0 0 0 0 0 0 0 0 -2 -6 -15 -50 -24 -38 -97 -110 -55 -115 -210 0 -26 -292 0
0 0 0 0 0 0 0 0 0 0 0 0 0 0 0 0 -10 -84 -167 -228 -187 -131 -48 -20 0 0 0 0 0 0 0 0 0 0 0 0 0 -23 -35 -25 -64 -128 -107 -116 -241 0 0 -331 0
0 0 0 0 0 0 0 0 0 0 0 0 0 0 0 -110 -80 -138 -171 -174 -154 -104 -68 -24 -1 0 0 0 0 0 0 0 0 0 0 0 -3 -19 -9 -17 -102 -212 -230 -151 -304 -268 -245 -273 -306
0 0 0 0 0 0 0 0 0 0 0 0 0 0 0 -59 -134 -136 -114 -104 -72 -66 -36 -10 0 0 0 0 0 0 0 0 0 0 0 0 0 -6 -18 -50 -103 -107 -225 -212 -283 -137 -137 -160 -252
0 0 0 0 0 0 0 0 0 0 0 0 0 0 0 0 -155 -106 -60 -52 -22 -35 -14 -5 0 -1 0 0 -1 -1 0 0 0 0 0 0 0 0 -8 -37 -49 -57 -160 -157 -138 -119 -102 -155 -235
0 0 0 0 0 0 0 0 0 0 0 0 0 0 0 0 -143 -91 -33 -20 -7 -15 -10 -3 0 -1 0 -2 -7 -3 0 -1 0 0 0 0 0 -11 -3 -16 -29 -43 -58 -67 -73 -129 -179 -230 -279
0 0 0 0 0 0 0 0 0 0 0 0 0 0 0 0 -31 -20 -17 0 -2 0 -4 0 0 0 0 0 -9 -9 -2 -2 -3 -2 -1 -15 -40 -30 -15 -71 -70 -55 -40 -71 -99 -123 -260 -305 -18
0 0 0 0 0 0 0 0 0 0 0 0 0 0 0 0 -10 0 0 0 0 0 0 0 0 0 0 0 -1 -3 -2 -1 -2 -2 -3 -33 -65 -114 -76 0 -147 -109 -141 -120 -178 -42 -22 -40 -40
0 0 0 0 0 0 0 0 0 0 0 0 0 0 0 0 -38 0 0 0 0 0 0 0 0 0 0 0 0 0 0 0 0 0 0 -23 -109 -166 -1 -37 -181 -179 -252 -128 -17 -31 -32 -20 -3
0 0 0 0 0 0 0 0 0 0 0 0 0 0 0 0 0 -47 -1 0 -7 -1 -1 -1 0 0 0 0 0 0 0 0 0 0 0 -36 -66 -170 -183 -219 -40 0 -11 -4 -18 0 0 0 0
0 0 0 0 0 0 0 0 0 0 0 0 0 0 0 0 0 0 -17 0 0 -5 0 -1 -2 0 0 0 0 0 0 0 0 0 -8 -39 -44 -132 -208 0 0 0 0 0 0 0 0 0 0
0 0 0 0 0 0 0 0 0 0 0 0 0 0 0 0 0 0 -24 -8 -1 0 -3 0 -5 -2 0 0 0 0 0 0 0 -8 -21 -13 -47 -145 -247 0 0 0 0 0 0 0 0 0 0
0 0 0 0 0 0 0 0 0 0 0 0 0 0 0 0 0 0 0 -46 -47 -2 0 -9 -2 0 -1 0 0 0 0 0 -9 -20 -4 0 -82 -159 -242 0 0 0 0 0 0 0 0 0 0
0 0 0 0 0 0 0 0 0 0 0 0 0 0 0 0 0 0 0 0 0 -18 0 0 -4 -1 -1 -1 0 0 0 0 -5 -40 -16 0 -86 -151 -272 0 0 0 0 0 0 0 0 0 0
0 0 0 0 0 0 0 0 0 -3 0 0 0 0 0 0 0 0 0 0 -43 -24 -7 0 0 0 0 0 0 0 -19 -1 -12 -30 -39 -3 -73 -162 -240 0 0 0 0 0 0 0 0 0 0
0 0 0 0 0 0 0 0 0 -6 -4 0 0 0 0 0 0 0 0 0 0 -3 -6 0 0 0 0 0 0 -1 -42 -1 -5 -42 -7 -17 -81 -268 0 0 0 0 0 0 0 0 0 0 0
0 0 0 0 0 0 0 0 -6 0 -2 -1 -1 0 0 0 0 -9 0 0 0 -6 -4 0 -3 -1 -1 0 0 0 -15 -9 -1 -29 -12 -5 -110 -236 0 0 0 0 0 0 0 0 0 0 0
0 0 0 0 0 0 0 0 0 -3 -1 -3 -1 0 0 0 0 -2 0 0 0 0 -1 -6 -3 0 0 0 -1 0 -4 -21 -5 -13 -10 -13 -66 0 0 0 0 0 0 0 0 0 0 0 0
0 0 0 0 0 0 0 0 -2 -3 0 -2 0 0 0 0 0 0 -3 0 0 0 0 0 -6 0 -3 0 -2 -23 -35 -43 -11 -16 0 -2 -65 0 0 0 0 0 0 0 0 0 0 0 0
0 0 0 0 0 0 0 0 0 0 0 0 0 0 0 0 0 0 -6 0 -1 0 -8 0 -5 -2 0 -1 0 -1 -12 -8 -3 0 -2 -3 -24 0 0 0 0 0 0 0 0 0 0 0 0
0 0 0 0 0 0 0 0 0 -1 0 0 0 0 0 0 0 0 0 0 -1 0 -2 -1 -12 0 -1 -3 0 0 0 -8 -1 -2 -32 -43 0 0 0 0 0 0 0 0 -12 0 0 0 0
0 0 0 0 0 0 0 0 0 0 0 0 0 0 0 0 0 -1 0 0 0 0 0 -2 -51 -1 0 -3 0 -3 0 -4 -12 -3 -32 -20 0 0 0 0 0 0 0 -37 -23 0 0 0 0
0 0 0 0 0 0 0 0 0 0 0 0 0 0 0 0 0 0 0 0 -1 -3 0 -12 -34 -2 -2 0 0 -23 -9 -3 -5 0 -12 0 0 0 0 0 -2 -1 -3 -14 -7 0 0 0 0
0 0 0 0 0 0 0 0 0 0 0 0 0 0 0 0 0 0 0 0 0 0 0 0 0 -1 -1 0 -15 -18 -2 -18 -17 0 -21 0 0 0 0 0 -1 -5 0 0 -1 0 0 0 0
0 0 0 0 0 0 0 0 0 0 0 0 0 0 0 0 0 0 0 0 0 0 -1 0 0 -2 -1 0 0 -4 0 -1 -51 -1 -1 0 0 0 0 0 0 0 0 0 0 0 0 0 0
0 0 0 0 0 0 0 0 0 0 0 0 0 0 0 0 0 0 0 0 0 -2 0 0 0 0 0 0 0 0 -1 0 -13 -1 -7 -11 0 0 0 0 0 0 0 0 0 0 0 0 0
0 0 0 0 0 0 0 0 0 0 0 0 0 0 0 0 0 0 0 -1 0 0 0 0 0 -1 0 0 0 0 -2 -5 -9 -4 -6 -7 0 0 0 0 0 0 0 0 0 0 0 0 0
0 0 0 0 0 0 0 0 0 0 0 0 0 0 0 0 0 0 -2 0 0 0 0 0 0 0 -2 0 0 0 -2 0 -1 0 -25 -10 -49 0 0 0 0 0 0 0 0 0 0 0 0
0 0 0 0 0 0 0 0 0 0 0 0 0 0 0 0 0 0 0 0 0 0 0 0 -21 0 0 -1 0 0 0 0 -8 0 -21 -2 -56 -17 -88 0 0 0 0 0 -1 0 0 0 0
Wind_Speed
nan nan nan nan nan nan nan nan nan nan nan nan nan nan nan nan nan nan 28 22 24 26 29 27 27 27 28 31 31 28 19 20 16 14 14 15 11 9 10 14 16 19 18 16 19 19 nan 13 nan
nan nan nan nan nan nan nan nan nan nan nan nan nan nan nan nan nan nan 26 24 28 26 27 24 28 26 27 28 30 29 21 20 16 12 14 14 13 10 12 15 17 17 17 15 18 nan nan nan nan
nan nan nan nan nan nan nan nan nan nan nan nan nan nan nan nan nan 31 31 31 30 26 25 23 28 28 24 30 31 27 24 19 17 12 13 15 15 12 13 16 18 19 18 17 nan nan nan nan nan
nan nan nan nan nan nan nan nan nan nan nan nan nan nan nan nan 41 35 30 30 32 29 27 30 25 25 28 31 29 27 23 18 17 12 13 16 15 13 16 18 19 nan nan 17 nan nan 12 12 nan
nan nan nan nan nan nan nan nan nan nan nan nan nan nan nan nan 46 38 31 29 29 32 31 33 31 30 29 28 28 25 25 19 16 13 14 17 15 17 19 20 21 20 nan 18 nan 16 13 13 13
nan nan nan nan nan nan nan nan nan nan nan nan nan nan nan nan 48 43 32 28 27 30 31 31 31 31 31 29 29 23 25 20 18 17 19 21 20 20 20 21 20 20 19 20 20 19 19 17 16
nan nan nan nan nan nan nan nan nan nan nan nan nan nan nan nan 57 46 33 29 28 31 30 27 29 27 28 30 28 24 26 23 22 20 23 26 25 22 19 20 20 20 18 17 20 23 24 20 nan
nan nan nan nan nan nan nan nan nan nan nan nan nan nan nan nan nan 45 37 32 34 30 30 25 26 26 26 26 28 26 27 27 25 24 27 30 27 24 21 19 20 23 23 19 19 25 28 nan nan
nan nan nan nan nan nan nan nan nan nan nan nan nan nan nan nan 64 47 41 34 37 33 30 27 24 24 28 23 25 27 30 32 31 30 32 29 26 22 nan nan 22 25 27 26 29 nan nan nan nan
nan nan nan nan nan nan nan nan nan nan nan nan nan nan nan nan nan 62 44 39 37 34 25 26 26 26 28 30 25 25 28 29 26 25 25 26 nan nan nan nan nan 27 nan nan nan nan nan nan nan
nan nan nan nan nan nan nan nan nan nan nan nan nan nan nan nan nan nan 67 46 38 35 32 29 27 28 30 27 30 35 34 31 30 23 25 27 29 nan nan nan nan nan nan nan nan nan nan nan nan
nan nan nan nan nan nan nan nan nan nan nan nan nan nan nan nan nan nan nan 69 73 43 33 30 27 30 29 31 29 32 32 32 31 28 28 29 31 nan nan nan nan nan nan nan nan nan nan nan nan
nan nan nan nan nan nan nan nan nan nan nan nan nan nan nan nan nan nan nan nan 74 73 37 34 31 33 32 30 29 34 29 32 33 32 28 30 29 nan nan nan nan nan nan nan nan nan nan nan nan
nan nan nan nan nan nan nan nan nan nan nan nan nan nan nan nan nan nan nan nan nan 76 75 46 35 35 34 32 26 30 31 33 34 35 32 30 31 nan nan nan nan nan nan nan nan nan nan nan nan
nan nan nan nan nan nan nan nan nan nan nan nan nan nan nan nan nan nan nan nan 81 78 74 72 40 29 33 33 31 34 33 35 35 36 34 32 30 nan nan nan nan nan nan nan nan nan nan nan nan
nan nan nan nan nan nan nan nan nan nan nan nan nan nan nan nan nan nan nan nan nan nan 81 78 72 37 44 38 38 36 38 35 37 37 36 33 34 nan nan nan nan nan nan nan nan nan nan nan nan
nan nan nan nan nan nan nan nan nan nan nan nan nan nan nan nan nan nan nan nan nan nan 84 nan 77 59 47 46 43 38 37 40 38 39 38 37 37 nan nan nan nan nan nan nan nan nan nan nan nan
nan nan nan nan nan nan nan nan nan nan nan nan nan nan nan nan nan nan nan nan nan nan nan nan 83 79 49 54 51 47 45 45 43 41 39 36 nan nan nan nan nan nan nan nan nan nan nan nan nan
nan nan nan nan nan nan nan nan nan nan nan nan nan nan nan nan nan nan nan nan nan nan nan nan nan nan 72 58 57 53 49 49 48 43 37 nan nan nan nan nan nan nan nan nan nan nan nan nan nan
nan nan nan nan nan nan nan nan nan nan nan nan nan nan nan nan nan nan nan nan nan nan nan nan nan nan 78 65 59 51 48 46 44 42 39 35 nan nan nan nan nan nan nan nan nan nan nan nan nan
nan nan nan nan nan nan nan nan nan nan nan nan nan nan nan nan nan nan nan nan nan nan nan nan nan nan 73 89 61 59 49 57 53 51 47 40 nan nan nan nan nan nan nan nan nan nan nan nan nan
nan nan nan nan nan nan nan nan nan nan nan nan nan nan nan nan nan nan nan nan nan nan nan nan nan nan nan nan 66 58 62 54 59 46 40 nan nan nan nan nan nan nan nan nan nan nan nan nan nan
nan nan nan nan nan nan nan nan nan nan nan nan nan nan nan nan nan nan nan nan nan nan nan nan nan nan nan nan 77 63 59 50 56 48 nan nan nan nan nan nan nan nan nan nan nan nan nan nan nan
nan nan nan nan nan nan nan nan nan nan nan nan nan nan nan nan nan nan nan nan nan nan nan nan nan nan nan nan 93 nan 57 53 58 53 nan nan nan nan nan nan nan nan nan nan nan nan nan nan nan
nan nan nan nan nan nan nan nan nan nan nan nan nan nan nan nan nan nan nan nan nan nan nan nan nan nan nan nan nan nan 76 nan 50 54 nan nan nan nan nan nan nan nan nan nan nan nan nan nan nan
nan nan nan nan nan nan nan nan nan nan nan nan nan nan nan nan nan nan nan nan nan nan nan nan nan nan nan nan nan nan 82 nan 55 56 51 nan nan nan nan nan nan nan nan nan nan nan nan nan nan
nan nan nan nan nan nan nan nan nan nan nan nan nan nan nan nan nan nan nan nan nan nan nan nan nan nan nan nan nan nan nan 85 nan nan nan nan nan nan nan nan nan nan nan nan nan nan nan nan nan
nan nan nan nan nan nan nan nan nan nan nan nan nan nan nan nan nan nan nan nan nan nan nan nan nan nan nan nan nan nan nan nan nan 73 nan nan nan nan nan nan nan nan nan nan nan nan nan nan nan
nan nan nan nan nan nan nan nan nan nan nan nan nan nan nan nan nan nan nan nan nan nan nan nan nan nan nan nan nan nan nan nan nan nan nan nan nan nan nan nan nan nan nan nan nan nan nan nan nan
nan nan nan nan nan nan nan nan nan nan nan nan nan nan nan nan nan nan nan nan nan nan nan nan nan nan nan nan nan nan nan nan nan nan nan nan nan nan nan nan nan nan nan nan nan nan nan nan nan
Wind_Direction
nan nan nan nan nan nan nan nan nan nan nan nan nan nan nan nan nan nan 233 245 238 271 272 279 279 278 274 271 270 270 273 275 275 278 278 273 272 260 250 247 239 227 228 229 223 220 nan 239 nan
nan nan nan nan nan nan nan nan nan nan nan nan nan nan nan nan nan nan 231 251 253 268 269 277 275 277 270 269 269 273 271 268 267 269 272 271 266 260 245 240 235 223 220 229 226 nan nan nan nan
nan nan nan nan nan nan nan nan nan nan nan nan nan nan nan nan nan 228 226 247 259 268 268 260 269 269 270 268 267 265 268 264 264 258 260 260 260 261 245 235 228 217 214 224 nan nan nan nan nan
nan nan nan nan nan nan nan nan nan nan nan nan nan nan nan nan 237 228 231 242 255 269 263 263 272 274 266 270 266 261 256 251 253 249 246 254 259 248 240 231 227 nan nan 221 nan nan 229 244 nan
nan nan nan nan nan nan nan nan nan nan nan nan nan nan nan nan 236 232 238 240 248 260 255 264 270 270 266 272 264 256 257 249 245 239 242 249 250 248 238 232 223 221 nan 222 nan 220 239 249 255
nan nan nan nan nan nan nan nan nan nan nan nan nan nan nan nan 224 230 237 241 243 247 249 258 261 269 269 265 265 259 254 246 233 234 243 248 247 242 236 233 223 218 229 231 231 231 241 255 252
nan nan nan nan nan nan nan nan nan nan nan nan nan nan nan nan 219 226 227 237 242 242 238 251 257 254 247 260 254 255 250 241 233 229 239 245 240 236 233 231 223 219 225 232 236 235 236 241 nan
nan nan nan nan nan nan nan nan nan nan nan nan nan nan nan nan nan 230 226 225 237 238 237 245 254 254 248 241 244 245 240 236 227 226 231 234 230 226 230 223 221 219 216 230 233 234 237 nan nan
nan nan nan nan nan nan nan nan nan nan nan nan nan nan nan nan 212 230 233 226 223 230 237 235 241 246 238 236 230 232 230 229 222 221 226 231 224 223 nan nan 219 222 224 230 231 nan nan nan nan
nan nan nan nan nan nan nan nan nan nan nan nan nan nan nan nan nan 213 222 223 221 226 231 237 237 241 244 227 230 228 225 221 219 219 232 222 nan nan nan nan nan 228 nan nan nan nan nan nan nan
nan nan nan nan nan nan nan nan nan nan nan nan nan nan nan nan nan nan 212 204 214 217 217 222 231 240 244 237 218 212 207 207 211 220 220 225 217 nan nan nan nan nan nan nan nan nan nan nan nan
nan nan nan nan nan nan nan nan nan nan nan nan nan nan nan nan nan nan nan 204 204 206 210 215 223 230 236 230 230 216 214 205 208 212 219 223 220 nan nan nan nan nan nan nan nan nan nan nan nan
nan nan nan nan nan nan nan nan nan nan nan nan nan nan nan nan nan nan nan nan 202 201 199 208 215 221 226 229 220 233 208 216 221 216 218 221 227 nan nan nan nan nan nan nan nan nan nan nan nan
nan nan nan nan nan nan nan nan nan nan nan nan nan nan nan nan nan nan nan nan nan 199 195 194 212 220 221 222 224 223 218 218 218 214 213 221 223 nan nan nan nan nan nan nan nan nan nan nan nan
nan nan nan nan nan nan nan nan nan nan nan nan nan nan nan nan nan nan nan nan 197 199 195 192 202 214 221 222 219 216 220 214 215 213 215 217 222 nan nan nan nan nan nan nan nan nan nan nan nan
nan nan nan nan nan nan nan nan nan nan nan nan nan nan nan nan nan nan nan nan nan nan 197 196 191 191 215 214 215 212 212 215 215 213 211 212 222 nan nan nan nan nan nan nan nan nan nan nan nan
nan nan nan nan nan nan nan nan nan nan nan nan nan nan nan nan nan nan nan nan nan nan 196 nan 196 185 210 209 207 212 211 214 214 215 210 215 219 nan nan nan nan nan nan nan nan nan nan nan nan
nan nan nan nan nan nan nan nan nan nan nan nan nan nan nan nan nan nan nan nan nan nan nan nan 201 191 218 211 207 208 208 211 213 216 212 221 nan nan nan nan nan nan nan nan nan nan nan nan nan
nan nan nan nan nan nan nan nan nan nan nan nan nan nan nan nan nan nan nan nan nan nan nan nan nan nan 192 214 212 209 210 209 211 212 217 nan nan nan nan nan nan nan nan nan nan nan nan nan nan
nan nan nan nan nan nan nan nan nan nan nan nan nan nan nan nan nan nan nan nan nan nan nan nan nan nan 198 198 209 211 213 212 215 212 216 218 nan nan nan nan nan nan nan nan nan nan nan nan nan
nan nan nan nan nan nan nan nan nan nan nan nan nan nan nan nan nan nan nan nan nan nan nan nan nan nan 198 200 203 212 213 208 207 208 212 212 nan nan nan nan nan nan nan nan nan nan nan nan nan
nan nan nan nan nan nan nan nan nan nan nan nan nan nan nan nan nan nan nan nan nan nan nan nan nan nan nan nan 199 213 215 217 205 209 212 nan nan nan nan nan nan nan nan nan nan nan nan nan nan
nan nan nan nan nan nan nan nan nan nan nan nan nan nan nan nan nan nan nan nan nan nan nan nan nan nan nan nan 192 212 214 214 206 209 nan nan nan nan nan nan nan nan nan nan nan nan nan nan nan
nan nan nan nan nan nan nan nan nan nan nan nan nan nan nan nan nan nan nan nan nan nan nan nan nan nan nan nan 198 nan 217 210 210 211 nan nan nan nan nan nan nan nan nan nan nan nan nan nan nan
nan nan nan nan nan nan nan nan nan nan nan nan nan nan nan nan nan nan nan nan nan nan nan nan nan nan nan nan nan nan 198 nan 224 217 nan nan nan nan nan nan nan nan nan nan nan nan nan nan nan
nan nan nan nan nan nan nan nan nan nan nan nan nan nan nan nan nan nan nan nan nan nan nan nan nan nan nan nan nan nan 201 nan 219 213 210 nan nan nan nan nan nan nan nan nan nan nan nan nan nan
nan nan nan nan nan nan nan nan nan nan nan nan nan nan nan nan nan nan nan nan nan nan nan nan nan nan nan nan nan nan nan 204 nan nan nan nan nan nan nan nan nan nan nan nan nan nan nan nan nan
nan nan nan nan nan nan nan nan nan nan nan nan nan nan nan nan nan nan nan nan nan nan nan nan nan nan nan nan nan nan nan nan nan 205 nan nan nan nan nan nan nan nan nan nan nan nan nan nan nan
nan nan nan nan nan nan nan nan nan nan nan nan nan nan nan nan nan nan nan nan nan nan nan nan nan nan nan nan nan nan nan nan nan nan nan nan nan nan nan nan nan nan nan nan nan nan nan nan nan
nan nan nan nan nan nan nan nan nan nan nan nan nan nan nan nan nan nan nan nan nan nan nan nan nan nan nan nan nan nan nan nan nan nan nan nan nan nan nan nan nan nan nan nan nan nan nan nan nan